414  
SXUS52 KJAX 271313  
OSOJAX  
OTHER SURFACE OBSERVATIONS  
NATIONAL WEATHER SERVICE JACKSONVILLE FL  
900 AM EDT TUE JUN 27 2017  
 
FLZ020>025-030>033-035>038-040-271400-   
..FLORIDA
 
 
 
CITY SKY/WX TMP DP RH WIND PRES REMARKS  
CECIL FIELD MOSUNNY 75 75 100 NW5 30.03R  
HERLONG FIELD NOT AVBL  
FERNANDINA BCH NOT AVBL  
LAKE CITY LGT RAIN 72 72 100 CALM 30.04R  
JUNIPER SPGS NOT AVBL  
BUNNELL NOT AVBL  
KEYSTONE HGTS CLOUDY 73 73 100 N3 30.04R  

 
 
GAZ132>136-149>154-162>166-271400-   
..GEORGIA
 
 
 
CITY SKY/WX TMP DP RH WIND PRES REMARKS  
JESUP CLOUDY 77 72 83 CALM 30.04S FOG  
HOMERVILLE FAIR 79 73 83 CALM 30.04S  
SWAINSBORO FAIR 77 72 83 NW6 30.06S  
CORDELE NOT AVBL  
EASTMAN FAIR 76 75 96 N3 30.08S  

 
 
PLEASE NOTE: THESE OBSERVATIONS ARE NOT QUALITY CONTROLLED AND MAY  
NOT BE AVAILABLE AT ALL TIMES.  

 
 
 
CLICK HERE TO GO TO PREVIOUS BULLETINS.

The Nexlab FL Page
The Nexlab GA Page Main Text Page